STARLINK-1184 (45098 NORAD) Tracking and Keplerian Element Data

This shows tracking and keplerian element data for the satellite.

Feedback or suggestion? Click here.




ElementValue
Catalog45098
NameSTARLINK-1184
Epoch Orbit224
Epoch Day52.91667824
Epoch Year2020
RAAN119.5251
Inclination52.9969
Eccentricity0.0001207
Argument of Perigee50.3275
Mean Anonmoly87.2541
Mean Motion15.7319025
Decay Rate3.255E-05
L11 45098U 20006BG 20052.91667824 .00003255 00000-0 27609-4 0 9999
L22 45098 52.9969 119.5251 0001207 50.3275 87.2541 15.73190250 2242

Live tracking and technical data element details for STARLINK-1184 (NORAD 45098). STARLINK-1184 can be tracked NOW for your location showing map with azimuth and elevation plus other details from your city location.

Track the satellite on the map from your city or location and see movement details for azimuth, elevation, latitude, longitude, range, height, and movement on the map or in text.







IsCatalogInMostPopularTable: catalog: 45098, numindb: 6
Update: records affected: 1



GetName: 45098 STARLINK-1184

Hit Count: updated at: Mon, 24 Feb 2020 17:03:46 GMT